Location: Harbor View
(36.2448°N, 86.5797°W)
Time: 08:32:07
(UTC+00:00)

NOAA 12 - Pass Details

Date: 29 October 2020
Orbit: 795 x 815 km, 98.5° (Epoch: 04 December)

Event Time Altitude Azimuth Distance (km) Brightness Sun altitude
Rises 23:21:12 0° 167° (SSE) 3,304 7.3 -6.4°
Reaches altitude 10° 23:23:31 10° 167° (SSE) 2,380 6.6 -6.9°
Maximum altitude 23:28:47 86° 257° (WSW) 817 4.2 -7.9°
Drops below altitude 10° 23:34:08 10° 346° (NNW) 2,406 6.6 -9.0°
Sets 23:36:29 0° 347° (NNW) 3,344 7.4 -9.4°
